Retour au catalogue

OPS 4682 DEB

ActifPO
NORAD 38401·DEBRIS·🇺🇸 United States

Lancé Apr 3, 1965 depuis Vandenberg Space Force Base

Loading…

Prochains Passages (prochaines 24 heures)

TLE

FraisSource: Space-Track

Époque: Sep 14, 2026, 07:08 UTC

1 38401U 65027DE  26257.29760063  .00000327  00000-0  11326-2 0  9998
2 38401  90.2504  10.5796 0030172 315.1033  44.7646 12.95344371673911

Suivez OPS 4682 DEB en temps réel avec AllMySat

Download on the App Store